Flag for Syria Weather past 2 weeks in Damascus, Syria

Now
64 °F

Clear.


Feels Like: 64 °F
Forecast: 48 / 67 °F
Wind: 18 mph from Southwest

Location: Damascus Int. Airport

Current Time: Apr 21, 2015 at 5:37:38 AM

Latest Report: Apr 21, 2015 at 5:00 AM


Visibility: 10 mi

Pressure: 29.80 "Hg

Humidity: 24%

Dew point: 27 °F

Location of DamascusLocation

Historic Weather in Damascus — Graph

°F

Damascus temperature yesterday

Maximum temperature yesterday: 84 °F (at 2:00 PM)
Minimum temperature yesterday: 48 °F (at 6:00 AM)
Average temperature yesterday: 67 °F

Past Weeks' High & Low Weather Summary

 TemperatureHumidityPressure
High90 °F (Apr 8, 2:00 PM)94% (Apr 17, 5:00 AM)30.27 "Hg (Apr 17, 5:00 AM)
Low39 °F (Apr 14, 7:00 AM)10% (Apr 20, 2:00 PM)29.71 "Hg (Apr 9, 4:00 AM)
Average59 °F48%30.00 "Hg
* Reported Apr 6 4:00 AM — Apr 21 4:00 AM, Damascus, Weather by CustomWeather, © 2015

Note: Actual official high and low records may vary slightly from our data, if they occured in-between our weather recording intervals... More about our weather records

Advertising

Damascus weather history for previous 24 hours

 ConditionsComfort  
Time TempWeatherWind HumidityBarometerVisibility
4:00 AM
Tue, Apr 21
66 °FClear.18 mph22%29.80 "Hg10 mi
3:00 AM64 °FClear.16 mph24%29.83 "Hg10 mi
2:00 AM63 °FClear.9 mph37%29.83 "Hg10 mi
1:00 AM63 °FClear.9 mph27%29.86 "Hg10 mi
12:00 AM64 °FClear.14 mph26%29.89 "Hg10 mi
11:00 PM
Mon, Apr 20
64 °FClear.18 mph26%29.89 "Hg10 mi
10:00 PM66 °FClear.18 mph19%29.89 "Hg10 mi
9:00 PM70 °FClear.21 mph18%29.89 "Hg10 mi
8:00 PM72 °FSunny.21 mph17%29.89 "Hg10 mi
7:00 PM75 °FSunny.25 mph15%29.89 "Hg10 mi
6:00 PM79 °FSunny.23 mph18%29.89 "Hg10 mi
5:00 PM81 °FSunny.18 mph15%29.92 "Hg10 mi
4:00 PM82 °FSunny.21 mph12%29.92 "Hg10 mi
3:00 PM84 °FSunny.23 mph10%29.92 "Hg10 mi
2:00 PM84 °FSunny.28 mph10%29.95 "Hg10 mi
1:00 PM82 °FSunny.14 mph12%29.98 "Hg10 mi
12:00 PM79 °FSunny.18 mph12%29.98 "Hg10 mi
11:00 AM75 °FSunny.21 mph14%30.01 "Hg10 mi
10:00 AM72 °FSunny.16 mph15%30.01 "Hg10 mi
9:00 AM66 °FSunny.14 mph21%30.01 "Hg10 mi
8:00 AM63 °FSunny.12 mph27%30.01 "Hg10 mi
7:00 AM52 °FSunny.7 mph50%30.01 "Hg10 mi
6:00 AM48 °FClear.9 mph58%30.01 "Hg10 mi
5:00 AM50 °FClear.9 mph58%30.01 "Hg10 mi
Weather by CustomWeather, © 2015

See weather overviewHow to use our weather pages